Location: Karaa?a�
(36.7158°N, 30.4165°E)
Time: 01:10:37
(UTC+00:00)

ATLAS 5 CENTAUR R/B - Pass Details

Date: 09 April 2020
Orbit: 543 x 1116 km, 63.4° (Epoch: 01 May)

Event Time Altitude Azimuth Distance (km) Brightness Sun altitude
Rises 18:15:31 0° 248° (WSW) 2,715 5.4 -21.1°
Reaches altitude 10° 18:18:05 10° 265° (W) 1,860 4.8 -21.6°
Maximum altitude 18:21:14 21° 315° (NW) 1,370 4.1 -22.1°
Drops below altitude 10° 18:24:38 10° 4° (N) 2,025 4.5 -22.7°
Sets 18:27:35 0° 21° (NNE) 3,038 5.2 -23.2°
